Location: Newark
(7.0858°N, 171.3717°E)
Time: 04:23:48
(UTC+00:00)

A-11 Canister half - Pass Details

Date: 06 December 2020
Orbit: 1517 x 1683 km, 47.2° (Epoch: 16 January)

Event Time Altitude Azimuth Distance (km) Brightness Sun altitude
Rises 08:33:59 0° 290° (WNW) 4,919 12.3 -32.3°
Reaches altitude 10° 08:38:18 10° 275° (W) 3,917 11.8 -33.3°
Maximum altitude 08:45:06 20° 231° (SW) 3,127 11.2 -34.8°
Drops below altitude 10° 08:51:50 10° 187° (S) 3,842 11.4 -36.4°
Sets 08:56:04 0° 171° (S) 4,798 11.8 -37.3°
